Time,TemperatureF,DewpointF,PressureIn,WindDirection,WindDirectionDegrees,WindSpeedMPH,WindSpeedGustMPH,Humidity,HourlyPrecipIn,Conditions,Clouds,dailyrainin,SoftwareType,DateUTC
2013-08-04 00:02:00,59.0,51.0,30.15,North,355,0.0,1.0,75,0.00,,,0.00,,2013-08-04 05:02:00,
2013-08-04 00:12:00,59.0,51.0,30.15,North,355,0.0,1.0,76,0.00,,,0.00,,2013-08-04 05:12:00,
2013-08-04 00:22:00,59.0,51.0,30.15,North,355,0.0,0.0,76,0.00,,,0.00,,2013-08-04 05:22:00,
2013-08-04 00:32:00,58.0,50.0,30.15,North,355,0.0,1.0,76,0.00,,,0.00,,2013-08-04 05:32:00,
2013-08-04 00:42:00,58.0,51.0,30.15,North,355,0.0,1.0,77,0.00,,,0.00,,2013-08-04 05:42:00,
2013-08-04 00:52:00,58.0,52.0,30.16,North,355,0.0,1.0,79,0.00,,,0.00,,2013-08-04 05:52:00,
2013-08-04 01:02:00,58.0,52.0,30.16,North,355,0.0,1.0,79,0.00,,,0.00,,2013-08-04 06:02:00,
2013-08-04 01:12:00,58.0,52.0,30.16,NNE,22,0.0,2.0,80,0.00,,,0.00,,2013-08-04 06:12:00,
2013-08-04 01:22:00,57.0,51.0,30.16,NNE,19,0.0,2.0,81,0.00,,,0.00,,2013-08-04 06:22:00,
2013-08-04 01:32:00,56.0,51.0,30.17,North,9,0.0,2.0,82,0.00,,,0.00,,2013-08-04 06:32:00,
2013-08-04 01:43:00,56.0,51.0,30.17,North,9,0.0,1.0,83,0.00,,,0.00,,2013-08-04 06:43:00,
2013-08-04 01:52:00,56.0,51.0,30.17,North,9,0.0,0.0,83,0.00,,,0.00,,2013-08-04 06:52:00,
2013-08-04 02:02:00,55.0,50.0,30.17,North,9,0.0,0.0,84,0.00,,,0.00,,2013-08-04 07:02:00,
2013-08-04 02:12:00,55.0,51.0,30.18,North,9,0.0,0.0,85,0.00,,,0.00,,2013-08-04 07:12:00,
2013-08-04 02:22:00,55.0,51.0,30.18,North,9,0.0,0.0,86,0.00,,,0.00,,2013-08-04 07:22:00,
2013-08-04 02:32:00,55.0,51.0,30.19,North,9,0.0,0.0,86,0.00,,,0.00,,2013-08-04 07:32:00,
2013-08-04 02:43:00,54.0,50.0,30.19,North,9,0.0,0.0,87,0.00,,,0.00,,2013-08-04 07:43:00,
2013-08-04 02:52:00,54.0,51.0,30.19,North,9,0.0,0.0,88,0.00,,,0.00,,2013-08-04 07:52:00,
2013-08-04 03:02:00,54.0,51.0,30.19,North,9,0.0,1.0,89,0.00,,,0.00,,2013-08-04 08:02:00,
2013-08-04 03:12:00,54.0,51.0,30.19,North,9,0.0,1.0,89,0.00,,,0.00,,2013-08-04 08:12:00,
2013-08-04 03:22:00,54.0,51.0,30.19,North,9,0.0,0.0,88,0.00,,,0.00,,2013-08-04 08:22:00,
2013-08-04 03:33:00,54.0,51.0,30.18,North,9,1.0,2.0,88,0.00,,,0.00,,2013-08-04 08:33:00,
2013-08-04 03:43:00,54.0,51.0,30.18,North,9,0.0,1.0,89,0.00,,,0.00,,2013-08-04 08:43:00,
2013-08-04 03:53:00,54.0,51.0,30.18,North,9,0.0,2.0,89,0.00,,,0.00,,2013-08-04 08:53:00,
2013-08-04 04:02:00,53.0,50.0,30.18,North,9,0.0,2.0,89,0.00,,,0.00,,2013-08-04 09:02:00,
2013-08-04 04:12:00,53.0,50.0,30.18,North,9,0.0,1.0,90,0.00,,,0.00,,2013-08-04 09:12:00,
2013-08-04 04:22:00,53.0,50.0,30.18,North,9,0.0,3.0,90,0.00,,,0.00,,2013-08-04 09:22:00,
2013-08-04 04:32:00,53.0,50.0,30.18,North,9,0.0,1.0,90,0.00,,,0.00,,2013-08-04 09:32:00,
2013-08-04 04:42:00,53.0,50.0,30.17,North,9,0.0,0.0,90,0.00,,,0.00,,2013-08-04 09:42:00,
2013-08-04 05:02:00,52.0,49.0,30.18,North,9,0.0,0.0,91,0.00,,,0.00,,2013-08-04 10:02:00,
2013-08-04 05:12:00,52.0,49.0,30.17,North,9,0.0,0.0,91,0.00,,,0.00,,2013-08-04 10:12:00,
2013-08-04 05:22:00,52.0,49.0,30.17,NNE,13,1.0,4.0,91,0.00,,,0.00,,2013-08-04 10:22:00,
2013-08-04 05:32:00,52.0,49.0,30.17,NNE,13,0.0,3.0,91,0.00,,,0.00,,2013-08-04 10:32:00,
2013-08-04 05:43:00,52.0,49.0,30.18,NNE,13,0.0,1.0,91,0.00,,,0.00,,2013-08-04 10:43:00,
2013-08-04 05:52:00,52.0,50.0,30.18,NNE,13,0.0,2.0,92,0.00,,,0.00,,2013-08-04 10:52:00,
2013-08-04 06:02:00,52.0,50.0,30.18,NNE,13,1.0,2.0,92,0.00,,,0.00,,2013-08-04 11:02:00,
2013-08-04 06:22:00,52.0,50.0,30.18,NNE,13,0.0,1.0,92,0.00,,,0.00,,2013-08-04 11:22:00,
2013-08-04 06:32:00,51.0,48.0,30.18,NNE,13,0.0,0.0,91,0.00,,,0.00,,2013-08-04 11:32:00,
2013-08-04 06:42:00,51.0,49.0,30.18,NNE,13,0.0,0.0,92,0.00,,,0.00,,2013-08-04 11:42:00,
2013-08-04 06:53:00,51.0,49.0,30.18,NNE,13,0.0,1.0,93,0.00,,,0.00,,2013-08-04 11:53:00,
2013-08-04 07:02:00,52.0,50.0,30.19,NNE,13,0.0,1.0,93,0.00,,,0.00,,2013-08-04 12:02:00,
2013-08-04 07:12:00,52.0,50.0,30.19,NNE,13,0.0,1.0,93,0.00,,,0.00,,2013-08-04 12:12:00,
2013-08-04 07:22:00,52.0,50.0,30.21,NNE,13,0.0,1.0,93,0.00,,,0.00,,2013-08-04 12:22:00,
2013-08-04 07:32:00,53.0,51.0,30.21,NNE,13,0.0,1.0,93,0.00,,,0.00,,2013-08-04 12:32:00,
2013-08-04 07:43:00,53.0,51.0,30.21,NNE,13,0.0,2.0,93,0.00,,,0.00,,2013-08-04 12:43:00,
2013-08-04 07:53:00,54.0,52.0,30.22,NNE,13,0.0,2.0,93,0.00,,,0.00,,2013-08-04 12:53:00,
2013-08-04 08:02:00,55.0,52.0,30.22,NNE,13,0.0,2.0,91,0.00,,,0.00,,2013-08-04 13:02:00,
2013-08-04 08:12:00,55.0,52.0,30.22,NNE,14,1.0,3.0,90,0.00,,,0.00,,2013-08-04 13:12:00,
2013-08-04 08:22:00,56.0,53.0,30.22,NNE,14,0.0,3.0,89,0.00,,,0.00,,2013-08-04 13:22:00,
2013-08-04 08:32:00,57.0,53.0,30.22,ENE,68,0.0,3.0,87,0.00,,,0.00,,2013-08-04 13:32:00,
2013-08-04 08:52:00,60.0,54.0,30.22,SE,135,1.0,3.0,82,0.00,,,0.00,,2013-08-04 13:52:00,
2013-08-04 09:02:00,61.0,55.0,30.22,SE,129,0.0,2.0,81,0.00,,,0.00,,2013-08-04 14:02:00,
2013-08-04 09:12:00,63.0,56.0,30.22,SE,129,0.0,3.0,77,0.00,,,0.00,,2013-08-04 14:12:00,
2013-08-04 09:22:00,64.0,55.0,30.21,SE,138,1.0,3.0,73,0.00,,,0.00,,2013-08-04 14:22:00,
2013-08-04 09:32:00,64.0,55.0,30.21,South,186,1.0,5.0,72,0.00,,,0.00,,2013-08-04 14:32:00,
2013-08-04 09:43:00,65.0,55.0,30.21,South,182,2.0,4.0,70,0.00,,,0.00,,2013-08-04 14:43:00,
2013-08-04 09:53:00,65.0,55.0,30.21,SE,127,2.0,4.0,69,0.00,,,0.00,,2013-08-04 14:53:00,
2013-08-04 10:02:00,65.0,55.0,30.22,SSE,150,1.0,4.0,69,0.00,,,0.00,,2013-08-04 15:02:00,
2013-08-04 10:12:00,65.0,55.0,30.22,SE,143,0.0,5.0,69,0.00,,,0.00,,2013-08-04 15:12:00,
2013-08-04 10:22:00,66.0,55.0,30.22,SSE,151,1.0,4.0,67,0.00,,,0.00,,2013-08-04 15:22:00,
2013-08-04 10:32:00,66.0,54.0,30.22,ESE,119,2.0,5.0,65,0.00,,,0.00,,2013-08-04 15:32:00,
2013-08-04 10:42:00,67.0,56.0,30.22,SSE,150,0.0,5.0,67,0.00,,,0.00,,2013-08-04 15:42:00,
2013-08-04 10:53:00,68.0,56.0,30.22,South,174,1.0,4.0,66,0.00,,,0.00,,2013-08-04 15:53:00,
2013-08-04 11:02:00,68.0,54.0,30.22,South,190,1.0,4.0,62,0.00,,,0.00,,2013-08-04 16:02:00,
2013-08-04 11:12:00,68.0,55.0,30.21,SE,127,1.0,5.0,64,0.00,,,0.00,,2013-08-04 16:12:00,
2013-08-04 11:22:00,68.0,54.0,30.21,SSW,207,2.0,6.0,62,0.00,,,0.00,,2013-08-04 16:22:00,
2013-08-04 11:32:00,68.0,54.0,30.21,NW,310,0.0,3.0,60,0.00,,,0.00,,2013-08-04 16:32:00,
2013-08-04 11:42:00,67.0,52.0,30.20,West,262,2.0,4.0,59,0.00,,,0.00,,2013-08-04 16:42:00,
2013-08-04 11:53:00,68.0,53.0,30.20,South,171,1.0,4.0,58,0.00,,,0.00,,2013-08-04 16:53:00,
2013-08-04 12:02:00,69.0,53.0,30.20,NE,51,1.0,4.0,57,0.00,,,0.00,,2013-08-04 17:02:00,
2013-08-04 12:12:00,70.0,55.0,30.19,SW,219,1.0,4.0,59,0.00,,,0.00,,2013-08-04 17:12:00,
2013-08-04 12:22:00,70.0,53.0,30.19,SSW,198,1.0,4.0,55,0.00,,,0.00,,2013-08-04 17:22:00,
2013-08-04 12:32:00,71.0,54.0,30.19,West,275,2.0,3.0,54,0.00,,,0.00,,2013-08-04 17:32:00,
2013-08-04 12:43:00,70.0,53.0,30.18,NW,305,2.0,4.0,54,0.00,,,0.00,,2013-08-04 17:43:00,
2013-08-04 12:53:00,71.0,53.0,30.18,North,355,1.0,4.0,53,0.00,,,0.00,,2013-08-04 17:53:00,
2013-08-04 13:02:00,71.0,53.0,30.18,ENE,62,1.0,3.0,53,0.00,,,0.00,,2013-08-04 18:02:00,
2013-08-04 13:12:00,70.0,53.0,30.17,NNW,344,1.0,4.0,55,0.00,,,0.00,,2013-08-04 18:12:00,
2013-08-04 13:23:00,71.0,52.0,30.17,NE,49,2.0,4.0,52,0.00,,,0.00,,2013-08-04 18:23:00,
2013-08-04 13:33:00,71.0,54.0,30.16,ESE,110,0.0,0.0,54,0.00,,,0.00,,2013-08-04 18:33:00,
2013-08-04 13:43:00,70.0,52.0,30.16,South,169,1.0,4.0,52,0.00,,,0.00,,2013-08-04 18:43:00,
2013-08-04 13:52:00,71.0,52.0,30.16,NE,43,1.0,3.0,51,0.00,,,0.00,,2013-08-04 18:52:00,
2013-08-04 14:02:00,70.0,50.0,30.16,North,360,0.0,5.0,50,0.00,,,0.00,,2013-08-04 19:02:00,
2013-08-04 14:12:00,70.0,52.0,30.16,North,5,0.0,2.0,52,0.00,,,0.00,,2013-08-04 19:12:00,
2013-08-04 14:22:00,71.0,51.0,30.16,North,5,0.0,1.0,49,0.00,,,0.00,,2013-08-04 19:22:00,
2013-08-04 14:33:00,71.0,50.0,30.16,North,5,0.0,2.0,48,0.00,,,0.00,,2013-08-04 19:33:00,
2013-08-04 14:43:00,71.0,52.0,30.16,North,5,0.0,2.0,52,0.00,,,0.00,,2013-08-04 19:43:00,
2013-08-04 14:53:00,72.0,51.0,30.15,North,355,0.0,2.0,47,0.00,,,0.00,,2013-08-04 19:53:00,
2013-08-04 15:02:00,71.0,50.0,30.15,West,276,2.0,4.0,47,0.00,,,0.00,,2013-08-04 20:02:00,
2013-08-04 15:12:00,72.0,52.0,30.14,NW,304,0.0,3.0,50,0.00,,,0.00,,2013-08-04 20:12:00,
2013-08-04 15:22:00,73.0,53.0,30.14,SSE,157,0.0,3.0,49,0.00,,,0.00,,2013-08-04 20:22:00,
2013-08-04 15:33:00,72.0,50.0,30.14,WNW,303,3.0,4.0,46,0.00,,,0.00,,2013-08-04 20:33:00,
2013-08-04 15:42:00,73.0,50.0,30.14,WNW,298,2.0,3.0,45,0.00,,,0.00,,2013-08-04 20:42:00,
2013-08-04 15:53:00,72.0,52.0,30.13,NE,53,0.0,5.0,49,0.00,,,0.00,,2013-08-04 20:53:00,
2013-08-04 16:02:00,72.0,52.0,30.13,SSE,157,0.0,2.0,49,0.00,,,0.00,,2013-08-04 21:02:00,
2013-08-04 16:12:00,72.0,52.0,30.14,South,188,0.0,4.0,49,0.00,,,0.00,,2013-08-04 21:12:00,
2013-08-04 16:22:00,72.0,53.0,30.14,South,178,0.0,1.0,51,0.00,,,0.00,,2013-08-04 21:22:00,
2013-08-04 16:32:00,72.0,53.0,30.14,South,178,0.0,1.0,52,0.00,,,0.00,,2013-08-04 21:32:00,
2013-08-04 16:43:00,72.0,51.0,30.13,South,178,0.0,2.0,48,0.00,,,0.00,,2013-08-04 21:43:00,
2013-08-04 16:53:00,72.0,52.0,30.12,South,178,0.0,0.0,50,0.00,,,0.00,,2013-08-04 21:53:00,
2013-08-04 17:02:00,73.0,52.0,30.12,WSW,254,0.0,3.0,47,0.00,,,0.00,,2013-08-04 22:02:00,
2013-08-04 17:12:00,73.0,52.0,30.12,South,173,0.0,2.0,47,0.00,,,0.00,,2013-08-04 22:12:00,
2013-08-04 17:22:00,73.0,52.0,30.12,SE,144,1.0,5.0,47,0.00,,,0.00,,2013-08-04 22:22:00,
2013-08-04 17:32:00,73.0,53.0,30.11,SE,140,0.0,2.0,50,0.00,,,0.00,,2013-08-04 22:32:00,
2013-08-04 17:43:00,73.0,52.0,30.11,SE,142,0.0,5.0,48,0.00,,,0.00,,2013-08-04 22:43:00,
2013-08-04 17:53:00,72.0,52.0,30.11,South,173,0.0,2.0,49,0.00,,,0.00,,2013-08-04 22:53:00,
2013-08-04 18:02:00,72.0,52.0,30.10,South,173,0.0,1.0,50,0.00,,,0.00,,2013-08-04 23:02:00,
2013-08-04 18:12:00,72.0,53.0,30.10,South,173,0.0,2.0,52,0.00,,,0.00,,2013-08-04 23:12:00,
2013-08-04 18:22:00,71.0,52.0,30.10,South,171,0.0,3.0,51,0.00,,,0.00,,2013-08-04 23:22:00,
2013-08-04 18:32:00,71.0,51.0,30.10,SSE,155,0.0,3.0,50,0.00,,,0.00,,2013-08-04 23:32:00,
2013-08-04 18:43:00,71.0,51.0,30.10,SE,140,3.0,7.0,50,0.00,,,0.00,,2013-08-04 23:43:00,
2013-08-04 18:52:00,72.0,52.0,30.09,SSW,209,2.0,7.0,50,0.00,,,0.00,,2013-08-04 23:52:00,
2013-08-04 19:02:00,73.0,53.0,30.09,SSW,207,2.0,6.0,49,0.00,,,0.00,,2013-08-05 00:02:00,
2013-08-04 19:12:00,72.0,52.0,30.09,South,181,1.0,5.0,50,0.00,,,0.00,,2013-08-05 00:12:00,
2013-08-04 19:22:00,71.0,52.0,30.09,SSW,194,2.0,6.0,52,0.00,,,0.00,,2013-08-05 00:22:00,
2013-08-04 19:32:00,71.0,52.0,30.09,South,188,2.0,5.0,52,0.00,,,0.00,,2013-08-05 00:32:00,
2013-08-04 19:42:00,71.0,54.0,30.09,SSW,195,1.0,4.0,54,0.00,,,0.00,,2013-08-05 00:42:00,
2013-08-04 19:52:00,70.0,54.0,30.09,South,184,0.0,4.0,56,0.00,,,0.00,,2013-08-05 00:52:00,
2013-08-04 20:02:00,69.0,53.0,30.09,SW,214,0.0,2.0,57,0.00,,,0.00,,2013-08-05 01:02:00,
2013-08-04 20:12:00,69.0,54.0,30.08,SSE,164,0.0,1.0,59,0.00,,,0.00,,2013-08-05 01:12:00,
2013-08-04 20:22:00,68.0,54.0,30.08,SSE,164,0.0,0.0,61,0.00,,,0.00,,2013-08-05 01:22:00,
2013-08-04 20:33:00,68.0,54.0,30.08,SSE,164,0.0,1.0,62,0.00,,,0.00,,2013-08-05 01:33:00,
2013-08-04 20:52:00,66.0,55.0,30.08,SSE,164,0.0,1.0,67,0.00,,,0.00,,2013-08-05 01:52:00,
2013-08-04 21:02:00,65.0,55.0,30.08,SSE,164,0.0,1.0,69,0.00,,,0.00,,2013-08-05 02:02:00,
2013-08-04 21:12:00,64.0,54.0,30.08,SSE,164,0.0,0.0,71,0.00,,,0.00,,2013-08-05 02:12:00,
2013-08-04 21:22:00,63.0,54.0,30.07,SSE,164,0.0,0.0,73,0.00,,,0.00,,2013-08-05 02:22:00,
2013-08-04 21:33:00,63.0,55.0,30.07,SSE,164,0.0,0.0,74,0.00,,,0.00,,2013-08-05 02:33:00,
2013-08-04 21:43:00,62.0,54.0,30.07,SSE,164,0.0,0.0,75,0.00,,,0.00,,2013-08-05 02:43:00,
2013-08-04 21:53:00,62.0,54.0,30.07,SSE,164,0.0,0.0,76,0.00,,,0.00,,2013-08-05 02:53:00,
2013-08-04 22:02:00,61.0,53.0,30.07,SSE,164,0.0,0.0,76,0.00,,,0.00,,2013-08-05 03:02:00,
2013-08-04 22:12:00,61.0,54.0,30.07,SSE,164,0.0,0.0,77,0.00,,,0.00,,2013-08-05 03:12:00,
2013-08-04 22:22:00,61.0,54.0,30.07,SSE,164,0.0,0.0,78,0.00,,,0.00,,2013-08-05 03:22:00,
2013-08-04 22:32:00,60.0,53.0,30.08,SSE,164,0.0,0.0,78,0.00,,,0.00,,2013-08-05 03:32:00,
2013-08-04 22:53:00,59.0,53.0,30.07,SSE,164,0.0,0.0,81,0.00,,,0.00,,2013-08-05 03:53:00,
2013-08-04 23:02:00,59.0,54.0,30.07,SSE,164,0.0,0.0,82,0.00,,,0.00,,2013-08-05 04:02:00,
2013-08-04 23:12:00,58.0,53.0,30.07,SSE,164,0.0,0.0,83,0.00,,,0.00,,2013-08-05 04:12:00,
2013-08-04 23:22:00,58.0,53.0,30.07,SSE,164,0.0,0.0,83,0.00,,,0.00,,2013-08-05 04:22:00,
2013-08-04 23:32:00,58.0,53.0,30.07,SSE,164,0.0,0.0,83,0.00,,,0.00,,2013-08-05 04:32:00,
2013-08-04 23:43:00,58.0,54.0,30.07,SSE,164,0.0,0.0,85,0.00,,,0.00,,2013-08-05 04:43:00,
2013-08-04 23:52:00,57.0,53.0,30.06,SSE,164,0.0,0.0,86,0.00,,,0.00,,2013-08-05 04:52:00,